Regional Weather Roundup
Issued by NWS Wakefield, VA

Home | Current Version | Previous Version | Graphics & Text | Print | Product List | Glossary On
Versions: 1 2 3 4 5 6 7 8 9 10 11 12 13 14 15 16 17 18 19 20 21 22 23 24 25 26 27 28 29 30 31 32 33 34 35 36 37 38 39 40 41 42 43 44 45 46 47 48 49 50
000
ASUS41 KAKQ 131210
RWRAKQ

REGIONAL WEATHER ROUNDUP
NATIONAL WEATHER SERVICE WAKEFIELD VA
800 AM EDT SUN JUL 13 2014

Note: "fair" indicates few or no clouds below 12,000 feet with no
significant weather and/or obstructions to visibility. * = Denotes
station may not report precipitation (e.g., rain,snow,etc.),
thunder or fog.

VAZ042-051-052>054-056-131300-
NORTHERN VIRGINIA

CITY           SKY/WX    TMP DP  RH WIND       PRES   REMARKS
WASH NATIONAL  PTSUNNY   78  70  76 S13       30.07S
DULLES         PTSUNNY   75  68  78 S10       30.06S
FORT BELVOIR   MOSUNNY   77  71  83 VRB6      30.08S
QUANTICO       MOSUNNY   76  70  82 SW9       30.08S
FREDERICKSBRG* MOSUNNY   76  73  90 S7        30.07S
STAFFORD*      MOSUNNY   76  76 100 S3        30.12S
WARRENTON      MOSUNNY   76  74  92 S8        30.07S
CULPEPER*      MOSUNNY  N/A N/A N/A S3        30.08S
MANASSAS*      SUNNY     73  68  83 S6        30.08
LEESBURG*      MOSUNNY   75  72  88 S9        30.07S
WINCHESTER     MOSUNNY   77  66  69 SW6       30.06S
$$

VAZ048-049-060>072-079>083-131300-
CENTRAL AND SOUTH CENTRAL VIRGINIA...AND NORTH CENTRAL NORTH CAROLINA

CITY           SKY/WX    TMP DP  RH WIND       PRES   REMARKS
RICHMOND       PTSUNNY   78  71  79 S10       30.11S
CHESTERFIELD*  PTSUNNY   75  64  69 SW8       30.13S
HANOVER        PTSUNNY   76  71  85 S7        30.12S
TAPPAHANNOCK*  MOSUNNY   74  69  84 S7        30.11S
CHARLOTTSVILLE CLOUDY    73  68  84 S7        30.09S
ORANGE*        PTSUNNY   72  68  88 S6        30.10S
LOUISA*        MOSUNNY   73  70  88 SW3       30.09S
FARMVILLE*     PTSUNNY   75  72  88 SW8       30.09S
SOUTH HILL*    SUNNY     75  75 100 SW6       30.18F
ROANOKE RAPIDS SUNNY     66  64  94 SW5       30.14S
RALEIGH        MOSUNNY   76  70  82 SW5       30.15S
$$

VAZ088>098-131300-
SOUTHEAST VIRGINIA

CITY           SKY/WX    TMP DP  RH WIND       PRES   REMARKS
NORFOLK        PTSUNNY   75  71  87 S10       30.14R
VIRGINIA BEACH MOSUNNY   74  71  91 S6        30.13S
NORFOLK NAVAL  PTSUNNY   77  72  84 SW6       30.15S
WEST POINT*    MOSUNNY   78  72  84 S7        30.13S
NEWPORT NEWS   MOSUNNY   79  72  79 SW8       30.13S
LANGLEY AFB    MOSUNNY   76  76 100 SW8       30.12F
FORT EUSTIS    NOT AVBL
WILLIAMSBURG*  SUNNY     77  73  88 SW7       30.13F
FRANKLIN*      SUNNY     73 N/A N/A S3        30.14S
WAKEFIELD      MOSUNNY   75  71  87 S6        30.13S
$$

VAZ020-022-025-037-045-131300-
WESTERN AND SOUTHWEST VIRGINIA

CITY           SKY/WX    TMP DP  RH WIND       PRES   REMARKS
STAUNTON*      MOSUNNY   71  65  79 CALM      30.13S
HOT SPRINGS VA PTSUNNY   66  60  81 W12       30.27S
LYNCHBURG      MOSUNNY   72  67  84 S5        30.14R
DANVILLE       MOSUNNY   73  68  84 SW5       30.14S
MARTINSVILLE   MOSUNNY   73  66  78 CALM      30.17S
ROANOKE        PTSUNNY   71  65  81 CALM      30.16R
BLACKSBURG     CLOUDY    70  70 100 CALM      30.22S
DUBLIN*        PTSUNNY   68  68 100 CALM      30.21S FOG
MARION*        PTSUNNY   68  66  96 W3        30.25R
HILLSVILLE*    CLOUDY    69  64  84 S6        30.24R
RICHLANDS*     CLOUDY    74  66  76 SW3       30.23R
WISE*          MOSUNNY   70  68  94 SW5       30.23S
ABINGDON*      MOSUNNY   72  68  89 CALM      30.20S
$$

MDZ021>025-VAZ099-100-131300-
SOUTHERN MARYLAND AND THE DELMARVA PENINSULA

CITY           SKY/WX    TMP DP  RH WIND       PRES   REMARKS
PATUXENT RIVER PTSUNNY   76  71  85 S8        30.08F
BAY BRIDGE APT   N/A     77  72  83 S8        30.07S
LEONARDTOWN    SUNNY     73  68  83 S7        30.10F
DOVER          PTSUNNY   74  74 100 S13       30.07S
GEORGETOWN     CLOUDY    73  70  90 S14       30.11F FOG
EASTON         MOSUNNY   77  77 100 S9        30.12F
CAMBRIDGE      PTSUNNY   77  70  78 S6        30.09F
SALISBURY      MOSUNNY   75  71  87 S7        30.12S
OCEAN CITY     PTSUNNY   76  71  85 SW9       30.13R
WALLOPS ISLAND SUNNY     75  72  90 SW12      30.13S
ACCOMACK*        N/A     73  70  88 S8        30.13S
$$

NCZ012>017-030>032-131300-
EASTERN NORTH CAROLINA

CITY           SKY/WX    TMP DP  RH WIND       PRES   REMARKS
ELIZABETH CITY SUNNY     75  73  93 SW3       30.16R
AHOSKIE*       CLOUDY    71  70  96 CALM      30.15R
EDENTON*       SUNNY     75  73  92 S5        30.16R
CURRITUCK*     SUNNY     74  72  91 CALM      30.16R
KILL DEVIL HLS SUNNY     75  73  95 CALM      30.15R
MANTEO         NOT AVBL
CAPE HATTERAS  SUNNY     80  72  76 NW6       30.16S
GOLDSBORO      SUNNY     74  73  99 SW3       30.14S
WASHINGTON     SUNNY     74  72  91 SW3       30.16S
GREENVILLE     SUNNY     77  73  88 SW5       30.16S
NEW BERN       SUNNY     77  73  87 CALM      30.18R
WILMINGTON     SUNNY     77  73  87 CALM      30.16S
$$

VAZ048-131300-
ELSEWHERE

CITY           SKY/WX    TMP DP  RH WIND       PRES   REMARKS
HARRISBURG PA  PTSUNNY   75  69  81 VRB5      30.03F
BALTIMORE      PTSUNNY   75  70  84 S6        30.06F
ANNAPOLIS      PTSUNNY   76  70  82 S9        30.07S
ANDREWS AFB    SUNNY     72  72  98 S10       30.08R
WILMINGTON DE  CLOUDY    74  71  91 S8        30.09S
PHILADELPHIA   CLOUDY    74  67  78 S9        30.08F
WILDWOOD NJ*   PTSUNNY   73  68  83 S12       30.12F
ATLANTIC CITY  MOSUNNY   73  69  87 S12       30.11F
HENDERSON NC   SUNNY     74  70  88 SW6       30.14S
GREENSBORO     PTSUNNY   75  69  81 SW7       30.15S
ROCKY MOUNT    MOSUNNY   74  73  97 S6        30.15S
FAYETTEVILLE   MOSUNNY   74  72  93 S6        30.15S
CHARLOTTE      MOSUNNY   74  69  85 S5        30.16S
$$

VAZ100-131300-
MARINE

STATION/POSITION TIME  TEMP    WIND        PRES    WAVE   SWELL
                       AIR SEA DIR/SP/G            HT/PER HT/PER
                 (UTC) (F)     (DEG/KT/KT) (MB)    (FT/S) (FT/S)
44066 TX TWR #4  1200   71 71  190/  8/ 10 1020.5F   2/ 7   2/ 7
CAPE MAY NJ      1200   71 71  180/  8/ 11 1019.4F
LEWES DE         1200   73 66  220/  7/ 11 1018.9F
15NM E FENWICK I 1200   73 73              1020.0F   2/ 6
OCEAN-CITY-INLET 1200   71 71  220/ 11/ 12 1019.9R
WACHAPREAGUE VA  1200   76 78  210/  7/ 11 1020.1S
THOMAS POINT MD  1200   76 78  200/ 17/ 19 1018.8R
GOOSES REEF MD   1200   76     200/ 14/ 16 1018.9F
COVE POINT MD    1200   75     200/ 13/ 15 1018.7R
SOLOMONS ISLAND  1200      80                N/A
BISHOPS HEAD MD  1200   77 78  200/ 14/ 16 1019.2F
PINEY POINT MD   1200          210/  8/ 10   N/A
POTOMAC MD       1200   76     220/ 10/ 14 1018.7F
CAMBRIDGE MD     1200   76 80  180/  5/  8 1018.5F
LEWISETTA VA     1200   75 81  210/ 10/ 12 1018.9S
RAPPAHANNOCK LGT 1200          200/ 12/ 13 1020.6S
STINGRAY PT      1200   76     210/  8/ 10 1019.3S
YORK RVR RNG VA  1200   76     230/ 10/ 11 1019.5S
YORKTOWN VA      1200   76 80  230/  9/ 11 1019.6F
JAMESTOWN VA     1200   73     210/  6/ 10   N/A
DOMINION TERM VA 1200   74     230/  9/ 11 1020.4R
KIPTOPEKE VA     1200      77  200/  8/  9   N/A
CHES BAY BRIDGE  1200   74 76  190/  8/  9 1019.8S
CAPE HENRY VA    1200   74     190/  5/  8 1019.3F
WILLOUBY STN VA  1200   81     230/ 11/ 12 1019.5F
S CRANEY ISL VA  1200          200/  5/  8 1020.4F
CAPE HENRY BUOY  1100      75                N/A     2/ 6
1ST LANDING BUOY 1200   75     200/  8/ 10 1020.1S
CAPE CHARLES BUO 1200      67                N/A     2/ 7
OFFSHORE WE BUOY 1200      76                N/A     2/ 6
64NM E OF VA BCH 1200   75 76  240/  2/  4 1020.8F   2/ 7   2/ 7
DUCK PIER NC     1200   77 70  140/  3/  4 1020.3S
44056 DUCK FRF   1200                        N/A     2/ 7
OREGON INLET NC  1200   78 78   70/  2/  4 1021.0F
HATTERAS NC      1200   79 81  330/  5/  6 1021.5F
DIAMOND SHLS NC  1200          VRB  6/  8  1021.1S   2/ 7   2/ 7
CAPE LOOKOUT NC  1100   77     360/  5/  5 1021.1R
$$


USA.gov is the U.S. government's official web portal to all federal, state and local government web resources and services.